Date String (YYYY-MM-DD hh:mm:ss) UTC,Instrument flags,Ambient pressure (hPa),Sample flow (lpm),Bypass flow (lpm),Sample temperature (°C),Ambient temperature (°C),ASC tube jacket temperature (°C),LED temperature (°C),Box temperature (°C),Sample RH (%),Span deviation,Mass concentration (μg/m³),Mass concentration (μg/m³),Mass concentration (μg/m³)
DateTimeUTC,F1_M11,P_M11,Q1_M11,Q2_M11,T1_M11,T2_M11,T3_M11,T4_M11,T5_M11,U1_M11,ZSPAN_M11,X0_M11,X2_M11,X1_M11
2022-07-29 10:00:00,,0830.0,5.00,0.00,31.0,28.7,00.0,39.4,32.1,34.2,0000.1,0012.55,0008.45,0007.78
2022-07-29 10:01:00,,0830.0,5.00,0.00,31.0,28.8,00.0,39.4,32.2,34.4,-000.0,0012.12,0008.46,0007.77
2022-07-29 10:02:00,,0829.9,5.00,0.00,31.0,28.8,00.0,39.4,32.2,34.5,0000.1,0012.02,0008.45,0007.76
2022-07-29 10:03:00,,0829.9,5.00,0.00,31.0,28.9,00.0,39.4,32.2,34.6,0000.0,0011.99,0008.50,0007.79
2022-07-29 10:04:00,,0829.9,5.00,0.00,31.0,28.9,00.0,39.5,32.2,34.7,0000.1,0012.31,0008.59,0007.84
2022-07-29 10:05:00,,0829.9,5.00,0.00,31.0,29.0,00.0,39.5,32.2,34.8,-000.1,0012.48,0008.66,0007.89
2022-07-29 10:06:00,,0829.9,5.00,0.00,30.9,29.0,00.0,39.5,32.2,34.8,0000.0,0012.65,0008.73,0007.95
2022-07-29 10:07:00,,0829.9,4.99,0.00,30.9,29.1,00.0,39.5,32.3,34.8,-000.0,0012.94,0008.78,0008.01
2022-07-29 10:08:00,,0829.9,5.00,0.00,30.9,29.1,00.0,39.5,32.3,34.9,-000.3,0012.80,0008.79,0008.05
2022-07-29 10:09:00,,0829.9,5.01,0.00,30.9,29.1,00.0,39.5,32.3,35.0,-001.0,0012.69,0008.81,0008.09
2022-07-29 10:10:00,,0829.8,5.01,0.00,31.0,29.2,00.0,39.5,32.3,35.0,-001.1,0012.83,0008.86,0008.13
2022-07-29 10:11:00,,0830.0,4.99,0.00,31.1,29.2,00.0,39.5,32.5,34.6,-001.1,0012.88,0008.88,0008.15
2022-07-29 10:12:00,,0830.0,4.99,0.00,31.2,29.2,00.0,39.5,32.5,34.4,-001.1,0012.84,0008.84,0008.16
2022-07-29 10:13:00,,0830.0,5.00,0.00,31.3,29.2,00.0,39.6,32.5,34.3,-001.6,0012.88,0008.85,0008.19
2022-07-29 10:14:00,,0830.1,5.01,0.00,31.3,29.3,00.0,39.6,32.5,34.4,-001.6,0013.21,0008.86,0008.20
2022-07-29 10:15:00,,0830.1,5.00,0.00,31.3,29.3,00.0,39.6,32.5,34.4,-001.5,0013.25,0008.87,0008.21
2022-07-29 10:16:00,,0830.1,5.00,0.00,31.3,29.3,00.0,39.6,32.5,34.4,-001.3,0013.32,0008.83,0008.22
2022-07-29 10:17:00,,0830.1,5.00,0.00,31.3,29.3,00.0,39.7,32.5,34.4,-001.2,0014.19,0008.82,0008.21
2022-07-29 10:18:00,,0830.1,4.99,0.00,31.3,29.2,00.0,39.7,32.5,34.4,-001.2,0014.35,0008.82,0008.21
2022-07-29 10:19:00,,0830.1,5.00,0.00,31.2,28.4,00.0,39.6,32.3,34.6,-001.0,0014.60,0008.83,0008.21
2022-07-29 10:20:00,,0830.0,5.00,0.00,31.1,27.9,00.0,39.6,32.2,34.7,-000.6,0014.98,0008.86,0008.21
2022-07-29 10:21:00,,0830.0,4.98,0.00,31.0,27.8,00.0,39.6,32.0,34.9,-000.6,0015.08,0008.84,0008.22
2022-07-29 10:22:00,,0829.9,5.02,0.00,31.0,27.8,00.0,39.6,32.1,35.1,-000.8,0015.94,0008.86,0008.24
2022-07-29 10:23:00,,0830.0,4.99,0.00,31.1,27.9,00.0,39.5,32.2,34.7,-001.0,0017.15,0008.93,0008.24
2022-07-29 10:24:00,,0830.0,5.00,0.00,31.2,28.1,00.0,39.5,32.2,34.4,-000.9,0017.66,0008.98,0008.22
2022-07-29 10:25:00,,0830.0,5.01,0.00,31.2,28.2,00.0,39.5,32.1,34.4,-000.6,0018.19,0009.02,0008.19
2022-07-29 10:26:00,,0829.9,4.99,0.00,31.2,28.3,00.0,39.5,32.2,34.3,-000.5,0019.34,0008.97,0008.15
2022-07-29 10:27:00,,0830.0,5.02,0.00,31.2,28.4,00.0,39.5,32.2,34.3,-000.8,0019.10,0009.00,0008.14
2022-07-29 10:28:00,,0830.0,4.99,0.00,31.2,28.5,00.0,39.5,32.2,34.3,-000.6,0019.04,0009.01,0008.12
2022-07-29 10:29:00,,0830.0,5.00,0.00,31.1,28.6,00.0,39.5,32.2,34.3,-000.4,0018.56,0008.96,0008.10
2022-07-29 10:30:00,,0830.0,5.01,0.00,31.1,28.7,00.0,39.6,32.2,34.3,-000.6,0018.16,0008.94,0008.08
2022-07-29 10:31:00,,0830.0,4.99,0.00,31.1,28.8,00.0,39.6,32.2,34.3,-000.8,0017.72,0008.88,0008.05
2022-07-29 10:32:00,,0829.9,5.01,0.00,31.1,28.8,00.0,39.6,32.2,34.4,-000.7,0017.45,0008.85,0008.03
2022-07-29 10:33:00,,0829.9,5.00,0.00,31.1,28.9,00.0,39.6,32.2,34.4,-000.3,0016.51,0008.82,0008.01
2022-07-29 10:34:00,,0829.9,5.00,0.00,31.0,28.9,00.0,39.6,32.2,34.4,0000.5,0015.44,0008.78,0008.02
2022-07-29 10:35:00,,0829.9,5.00,0.00,31.0,29.0,00.0,39.6,32.3,34.4,0000.8,0015.04,0008.75,0008.05
2022-07-29 10:36:00,,0829.9,5.00,0.00,31.0,29.0,00.0,39.6,32.3,34.4,0000.7,0014.29,0008.71,0008.07
2022-07-29 10:37:00,,0830.0,5.00,0.00,31.0,29.1,00.0,39.6,32.3,34.5,0000.6,0012.88,0008.71,0008.09
2022-07-29 10:38:00,,0829.8,5.01,0.00,31.0,29.1,00.0,39.6,32.3,34.5,0001.0,0012.81,0008.69,0008.11
2022-07-29 10:39:00,,0829.8,4.99,0.00,31.0,29.1,00.0,39.6,32.3,34.5,0001.1,0012.33,0008.68,0008.14
2022-07-29 10:40:00,,0829.9,4.99,0.00,30.9,29.1,00.0,39.6,32.3,34.5,0001.2,0012.77,0008.72,0008.16
2022-07-29 10:41:00,,0829.9,5.00,0.00,30.9,29.2,00.0,39.6,32.4,34.5,0001.3,0013.04,0008.71,0008.18
2022-07-29 10:42:00,,0829.9,5.00,0.00,30.9,29.2,00.0,39.6,32.4,34.5,0001.6,0013.03,0008.74,0008.21
2022-07-29 10:43:00,,0829.9,5.01,0.00,30.9,29.2,00.0,39.6,32.4,34.5,0001.7,0013.05,0008.76,0008.22
2022-07-29 10:44:00,,0829.9,5.01,0.00,30.9,29.2,00.0,39.6,32.4,34.5,0001.3,0013.04,0008.78,0008.26
2022-07-29 10:45:00,,0829.9,5.00,0.00,30.9,29.3,00.0,39.6,32.4,34.5,0000.9,0013.13,0008.77,0008.28
2022-07-29 10:46:00,,0829.9,5.00,0.00,30.9,29.3,00.0,39.6,32.4,34.5,0000.8,0013.40,0008.78,0008.28
2022-07-29 10:47:00,,0829.9,5.00,0.00,30.9,29.3,00.0,39.6,32.4,34.5,0000.6,0013.35,0008.79,0008.29
2022-07-29 10:48:00,,0829.9,5.01,0.00,30.9,29.3,00.0,39.6,32.4,34.5,0000.4,0013.35,0008.77,0008.27
2022-07-29 10:49:00,,0829.9,5.01,0.00,30.9,29.3,00.0,39.6,32.5,34.6,0000.1,0013.18,0008.73,0008.25
2022-07-29 10:50:00,,0830.0,5.00,0.00,30.9,29.1,00.0,39.6,32.4,34.6,-000.3,0012.79,0008.71,0008.23
2022-07-29 10:51:00,,0830.0,4.99,0.00,30.8,28.4,00.0,39.5,32.2,34.6,-000.5,0012.36,0008.69,0008.24
2022-07-29 10:52:00,,0830.0,5.01,0.00,30.7,27.9,00.0,39.5,32.1,34.9,-000.6,0011.95,0008.67,0008.24
2022-07-29 10:53:00,,0830.0,5.00,0.00,30.6,27.8,00.0,39.4,32.0,35.1,-000.7,0011.94,0008.66,0008.23
2022-07-29 10:54:00,,0830.0,5.00,0.00,30.7,27.8,00.0,39.4,32.0,35.0,-000.8,0011.90,0008.63,0008.19
2022-07-29 10:55:00,,0830.1,4.99,0.00,30.8,27.9,00.0,39.4,32.1,34.6,-000.8,0011.89,0008.59,0008.13
2022-07-29 10:56:00,,0830.1,5.01,0.00,30.9,28.0,00.0,39.3,32.1,34.5,-000.7,0011.60,0008.60,0008.07
2022-07-29 10:57:00,,0830.1,4.99,0.00,30.9,28.2,00.0,39.3,32.1,34.3,-000.6,0011.39,0008.58,0008.03
2022-07-29 10:58:00,,0830.1,5.01,0.00,30.9,28.3,00.0,39.3,32.1,34.2,-000.6,0011.43,0008.55,0007.99
2022-07-29 10:59:00,,0830.1,5.00,0.00,30.9,28.4,00.0,39.4,32.1,34.1,-000.6,0011.44,0008.54,0007.97
